Regional Weather Roundup
Issued by NWS Sioux Falls, SD

Home | Current Version | Previous Version | Graphics & Text | Print | Product List | Glossary On
Versions: 1 2 3 4 5 6 7 8 9 10 11 12 13 14 15 16 17 18 19 20 21 22 23 24 25 26 27 28 29 30 31 32 33 34 35 36 37 38 39 40 41 42 43 44 45 46 47 48 49 50
000
ASUS43 KFSD 250910
RWRFSD

WEATHER ROUNDUP FOR SE SOUTH DAKOTA/SW MINNESOTA/NW IOWA
NATIONAL WEATHER SERVICE SIOUX FALLS SD
400 AM CDT WED MAY 25 2016

NOTE: "FAIR" INDICATES FEW OR NO CLOUDS BELOW 12,000 FEET WITH NO
SIGNIFICANT WEATHER AND OR OBSTRUCTIONS TO VISIBILITY.


SDZ038>040-050-052>070-251000-
SOUTHEAST SOUTH DAKOTA

CITY           SKY/WX    TMP DP  RH WIND       PRES   REMARKS
BROOKINGS      CLOUDY    66  61  84 SE14      29.76F
CHAMBERLAIN    RAIN      59  59 100 NE25G31   29.64F
HURON          LGT RAIN  64  61  90 N10       29.74F
MADISON        FAIR      64  64 100 SE16G22   29.77F
MITCHELL       TSTM      62  62 100 CALM      29.75S
SIOUX FALLS    LGT RAIN  67  62  84 SE12      29.77F
WINNER         FAIR      59  55  87 E6        29.75S
YANKTON        CLOUDY    61  55  82 W15       29.78R THUNDER
$$

MNZ071-072-080-081-089-090-097-098-251000-
SOUTHWEST MINNESOTA

CITY           SKY/WX    TMP DP  RH WIND       PRES   REMARKS
FAIRMONT       CLOUDY    64  48  55 SE8       29.85F
JACKSON        CLOUDY    64  59  82 SE10      29.84F
LUVERNE        CLOUDY    66  59  77 SE8       29.81F
MARSHALL       CLOUDY    65  60  84 E9        29.82F
MONTEVIDEO     CLOUDY    63  57  82 SE7       29.84F
PIPESTONE      CLOUDY    66  63  88 SE9       29.81F
REDWOOD FALLS  CLOUDY    66  59  78 E7        29.83F
TRACY          CLOUDY    66  61  82 SE6       29.83F
WINDOM         CLOUDY    66  61  82 CALM      29.85S
WORTHINGTON    CLOUDY    64  61  90 SE8       29.83F
$$

IAZ001>003-012>014-020>022-031-032-NEZ013-014-SDZ071-251000-
NORTHWEST IOWA

CITY           SKY/WX    TMP DP  RH WIND       PRES   REMARKS
CHEROKEE       CLOUDY    66  64  93 S5        29.84R
DENISON        LGT RAIN  64  59  82 S7        29.81F
ESTHERVILLE    CLOUDY    63  61  93 E10       29.83F
LE MARS        CLOUDY    68  64  88 SE10      29.80F
ORANGE CITY    CLOUDY    66  64  94 SE10      29.82R
SHELDON        CLOUDY    66  63  88 SE9       29.81S
SIOUX CITY     CLOUDY    68  58  70 S8        29.80S
SPENCER        RAIN      65  61  87 SE7       29.82F
STORM LAKE     CLOUDY    64  63  94 S8        29.87R
$$

ABBREVIATIONS USED IN REMARKS
   TC - TEMPERATURE IN CELSIUS
  WCI - WIND CHILL INDEX
   HX - HEAT INDEX
  VSB - VISIBILITY




USA.gov is the U.S. government's official web portal to all federal, state and local government web resources and services.